Theta_e
351 348 347 349 346 344 342 343 347 346 345 344 343 341 341 336 335 337 335 334 333 335
350 350 348 348 347 343 345 343 345 345 343 342 341 340 339 334 336 336 337 333 334 334
348 348 347 346 342 343 344 343 344 343 342 340 338 338 339 336 338 337 335 331 334 336
345 344 344 342 343 344 344 343 340 339 337 336 336 338 339 339 337 334 332 328 326 331
341 341 342 342 342 343 341 339 335 334 334 335 336 337 336 334 334 328 325 326 326 331
341 341 341 341 341 339 337 335 334 335 335 334 334 335 335 334 333 326 326 326 326 330
338 339 339 339 338 336 335 335 335 335 333 334 335 333 333 334 332 329 325 328 329 331
336 337 336 335 335 335 335 334 333 334 334 335 334 330 334 332 329 326 328 325 327 333
335 335 334 334 334 334 333 333 333 333 333 333 331 305 310 323 331 326 325 328 328 333
333 333 333 332 332 332 333 335 334 334 333 334 334 305 306 311 331 326 326 326 327 325
331 331 331 331 331 333 334 335 335 334 334 335 327 304 303 309 332 328 326 326 325 326
330 330 329 329 332 333 334 333 334 334 334 334 331 303 303 315 330 325 323 324 324 324
330 330 330 331 332 334 333 332 331 333 335 319 329 301 303 316 325 322 319 321 321 309
331 330 331 332 334 334 333 333 333 332 333 329 327 321 302 308 326 322 321 320 318 316
Wind_Speed
13 10 11 11 12 10 10 11 13 11 10 9 9 8 7 7 7 8 8 9 8 5
12 14 13 15 11 10 11 11 11 11 10 9 8 8 9 7 8 7 7 5 8 6
14 14 14 12 12 12 11 11 11 10 8 7 8 8 8 7 7 8 6 4 5 6
14 14 13 12 12 12 11 11 10 8 8 8 8 7 6 8 8 8 7 5 4 7
14 14 13 12 12 11 10 9 9 9 8 8 7 6 7 7 5 7 6 7 8 10
13 13 12 12 11 10 10 10 9 9 7 6 4 6 5 5 6 7 8 8 7 8
12 12 11 10 10 10 11 10 9 6 6 3 3 2 4 4 6 8 7 10 7 6
12 11 11 11 11 10 10 9 8 6 6 4 2 5 3 3 5 6 7 4 5 8
12 11 11 11 11 10 9 7 7 6 5 4 5 5 4 1 8 7 5 5 4 4
10 11 11 11 11 11 8 7 6 6 5 4 7 4 3 1 7 7 4 3 4 4
9 10 9 10 11 9 8 7 5 5 5 5 6 4 1 4 7 5 5 6 6 6
9 10 10 12 11 9 7 6 5 5 4 6 6 3 1 1 6 6 5 5 5 4
10 11 11 11 10 8 7 8 5 6 6 7 7 3 1 2 5 5 4 5 6 7
10 10 10 10 8 7 7 7 5 6 7 5 5 5 3 5 5 5 5 5 4 4
Wind_Direction
152 153 146 148 137 137 150 152 154 163 165 167 176 188 186 188 207 197 208 216 233 249
144 145 123 131 141 150 136 130 154 156 163 173 186 185 182 213 205 202 206 194 228 232
124 124 128 131 130 137 129 141 152 160 170 178 182 189 200 203 206 202 188 221 232 222
123 126 131 132 134 135 139 147 155 163 169 174 184 198 212 223 216 207 174 188 251 255
125 128 132 133 134 141 142 148 153 161 168 177 191 199 218 226 225 138 164 184 211 242
129 130 132 134 141 143 146 150 154 162 175 185 187 218 235 247 180 163 181 209 201 238
131 133 136 139 146 150 153 153 152 166 168 146 189 327 293 312 206 193 194 214 217 225
133 132 136 142 150 149 153 158 156 164 137 127 67 35 5 119 131 154 160 159 225 234
136 135 136 145 147 157 155 162 151 143 126 102 68 46 358 343 132 136 140 166 161 146
139 138 147 153 156 157 152 140 157 135 124 93 93 56 41 303 123 134 140 117 132 134
153 145 150 161 158 153 143 159 158 139 105 88 84 62 74 327 100 111 132 157 157 163
147 149 152 153 152 150 148 144 167 138 111 90 95 77 144 251 123 110 118 124 133 147
148 153 158 154 161 158 167 169 166 133 86 64 113 100 39 72 100 99 95 84 123 132
143 153 155 161 165 170 189 142 157 129 92 103 106 118 66 97 121 132 131 121 119 127